• En Estados Unidos
  • Lista de países
  • Para 7 días
  • Temperatura del agua
  • Mapa Satelital
  • El tiempo en el mapa
  • Informadores
  • user-avatar
    Iniciar sesión

    Tiempo cada hora Algiers

    Hoy, 20 Junio, Miércoles

    Tiempo Temperatura Precipitaciones Viento Presión Humedad
    00:00 +21°C° 0 mm 2 mps 751 mmHg 85%
    01:00 +21°C° 0 mm 2 mps 750 mmHg 84%
    02:00 +21°C° 0 mm 2 mps 750 mmHg 84%
    03:00 +20°C° 0 mm 2 mps 750 mmHg 83%
    04:00 +21°C° 0 mm 2 mps 750 mmHg 78%
    05:00 +23°C° 0 mm 2 mps 750 mmHg 73%
    06:00 +24°C° 0 mm 2 mps 751 mmHg 69%
    07:00 +25°C° 0 mm 3 mps 751 mmHg 61%
    08:00 +27°C° 0 mm 3 mps 751 mmHg 53%
    09:00 +29°C° 0 mm 3 mps 751 mmHg 45%
    10:00 +30°C° 0 mm 3 mps 751 mmHg 43%
    11:00 +32°C° 0 mm 4 mps 750 mmHg 41%
    12:00 +33°C° 0 mm 4 mps 750 mmHg 39%
    13:00 +33°C° 0 mm 4 mps 750 mmHg 40%
    14:00 +33°C° 0 mm 5 mps 749 mmHg 41%
    15:00 +33°C° 0 mm 5 mps 749 mmHg 43%
    16:00 +32°C° 0 mm 5 mps 749 mmHg 46%
    17:00 +30°C° 0 mm 5 mps 749 mmHg 50%
    18:00 +29°C° 0 mm 4 mps 749 mmHg 54%
    19:00 +28°C° 0 mm 4 mps 749 mmHg 59%
    20:00 +27°C° 0 mm 4 mps 749 mmHg 64%
    21:00 +25°C° 0 mm 3 mps 750 mmHg 70%
    22:00 +25°C° 0 mm 3 mps 749 mmHg 70%
    23:00 +25°C° 0 mm 3 mps 749 mmHg 71%

    Mañana, 21 Junio, Jueves

    Tiempo Temperatura Precipitaciones Viento Presión Humedad
    00:00 +25°C° 0 mm 3 mps 749 mmHg 72%
    01:00 +24°C° 0 mm 3 mps 749 mmHg 72%
    02:00 +24°C° 0 mm 3 mps 749 mmHg 71%
    03:00 +24°C° 0 mm 3 mps 749 mmHg 71%
    04:00 +25°C° 0 mm 3 mps 749 mmHg 67%
    05:00 +25°C° 0 mm 3 mps 749 mmHg 64%
    06:00 +26°C° 0 mm 3 mps 749 mmHg 60%
    07:00 +28°C° 0 mm 4 mps 749 mmHg 54%
    08:00 +30°C° 0 mm 4 mps 749 mmHg 47%
    09:00 +33°C° 0 mm 4 mps 749 mmHg 40%
    10:00 +33°C° 0 mm 5 mps 749 mmHg 39%
    11:00 +34°C° 0 mm 5 mps 749 mmHg 38%
    12:00 +35°C° 0 mm 6 mps 749 mmHg 37%
    13:00 +34°C° 0 mm 6 mps 748 mmHg 39%
    14:00 +34°C° 0 mm 6 mps 748 mmHg 40%
    15:00 +34°C° 0 mm 5 mps 748 mmHg 42%
    16:00 +33°C° 0 mm 5 mps 747 mmHg 46%
    17:00 +30°C° 0 mm 5 mps 747 mmHg 50%
    18:00 +29°C° 0 mm 4 mps 747 mmHg 54%
    19:00 +28°C° 0 mm 4 mps 748 mmHg 60%
    20:00 +27°C° 0 mm 3 mps 748 mmHg 65%
    21:00 +25°C° 0 mm 3 mps 749 mmHg 71%
    22:00 +25°C° 0 mm 3 mps 749 mmHg 72%
    23:00 +24°C° 0 mm 3 mps 749 mmHg 74%

    Pasado mañana, 22 Junio, Viernes

    Tiempo Temperatura Precipitaciones Viento Presión Humedad
    00:00 +24°C° 0 mm 2 mps 748 mmHg 75%
    01:00 +24°C° 0 mm 2 mps 748 mmHg 74%
    02:00 +24°C° 0 mm 2 mps 748 mmHg 73%
    03:00 +23°C° 0 mm 2 mps 748 mmHg 73%
    04:00 +24°C° 0 mm 2 mps 748 mmHg 69%
    05:00 +25°C° 0 mm 2 mps 748 mmHg 66%
    06:00 +25°C° 0 mm 2 mps 748 mmHg 63%
    07:00 +27°C° 0 mm 3 mps 748 mmHg 57%
    08:00 +29°C° 0 mm 3 mps 748 mmHg 51%
    09:00 +30°C° 0 mm 3 mps 749 mmHg 45%
    10:00 +33°C° 0 mm 4 mps 748 mmHg 42%
    11:00 +34°C° 0 mm 4 mps 748 mmHg 39%
    12:00 +35°C° 0 mm 5 mps 748 mmHg 36%
    13:00 +35°C° 0 mm 5 mps 748 mmHg 37%
    14:00 +35°C° 0 mm 5 mps 748 mmHg 38%
    15:00 +35°C° 0 mm 5 mps 747 mmHg 39%
    16:00 +34°C° 0 mm 5 mps 747 mmHg 42%
    17:00 +33°C° 0 mm 5 mps 747 mmHg 45%
    18:00 +32°C° 0 mm 5 mps 747 mmHg 48%
    19:00 +30°C° 0 mm 5 mps 747 mmHg 53%
    20:00 +28°C° 0 mm 5 mps 748 mmHg 58%
    21:00 +27°C° 0 mm 5 mps 748 mmHg 63%
    22:00 +27°C° 0 mm 4 mps 748 mmHg 62%
    23:00 +27°C° 0 mm 4 mps 748 mmHg 62%

    23 Junio, Sábado

    Tiempo Temperatura Precipitaciones Viento Presión Humedad
    00:00 +27°C° 0 mm 3 mps 748 mmHg 61%
    01:00 +27°C° 0 mm 4 mps 748 mmHg 59%
    02:00 +27°C° 0 mm 4 mps 748 mmHg 57%
    03:00 +27°C° 0 mm 4 mps 747 mmHg 56%
    04:00 +28°C° 0 mm 4 mps 747 mmHg 55%
    05:00 +28°C° 0 mm 4 mps 748 mmHg 54%
    06:00 +29°C° 0 mm 4 mps 748 mmHg 53%
    07:00 +32°C° 0 mm 4 mps 748 mmHg 47%
    08:00 +33°C° 0 mm 5 mps 748 mmHg 42%
    09:00 +35°C° 0 mm 5 mps 749 mmHg 36%
    10:00 +36°C° 0 mm 6 mps 748 mmHg 33%
    11:00 +38°C° 0 mm 6 mps 748 mmHg 31%
    12:00 +39°C° 0 mm 7 mps 748 mmHg 29%
    13:00 +39°C° 0 mm 7 mps 748 mmHg 29%
    14:00 +39°C° 0 mm 7 mps 747 mmHg 30%
    15:00 +39°C° 0 mm 8 mps 747 mmHg 30%
    16:00 +38°C° 0 mm 7 mps 747 mmHg 33%
    17:00 +35°C° 0 mm 7 mps 747 mmHg 37%
    18:00 +34°C° 0 mm 7 mps 746 mmHg 40%
    19:00 +33°C° 0 mm 7 mps 747 mmHg 45%
    20:00 +30°C° 0 mm 6 mps 747 mmHg 49%
    21:00 +29°C° 0 mm 6 mps 747 mmHg 54%
    22:00 +28°C° 0 mm 5 mps 747 mmHg 55%
    23:00 +28°C° 0 mm 5 mps 747 mmHg 56%

    24 Junio, Domingo

    Tiempo Temperatura Precipitaciones Viento Presión Humedad
    00:00 +28°C° 0 mm 5 mps 747 mmHg 57%
    01:00 +27°C° 0 mm 5 mps 747 mmHg 57%
    02:00 +27°C° 0 mm 5 mps 746 mmHg 56%
    03:00 +27°C° 0 mm 5 mps 746 mmHg 56%
    04:00 +28°C° 0 mm 5 mps 746 mmHg 55%
    05:00 +28°C° 0 mm 5 mps 746 mmHg 53%
    06:00 +29°C° 0 mm 5 mps 747 mmHg 52%
    07:00 +30°C° 0 mm 5 mps 747 mmHg 47%
    08:00 +33°C° 0 mm 5 mps 747 mmHg 43%
    09:00 +35°C° 0 mm 5 mps 747 mmHg 38%
    10:00 +36°C° 0 mm 6 mps 746 mmHg 37%
    11:00 +38°C° 0 mm 6 mps 746 mmHg 36%
    12:00 +39°C° 0 mm 6 mps 746 mmHg 34%
    13:00 +38°C° 0 mm 6 mps 746 mmHg 37%
    14:00 +38°C° 0 mm 6 mps 746 mmHg 39%
    15:00 +36°C° 0 mm 6 mps 745 mmHg 41%
    16:00 +35°C° 0 mm 6 mps 746 mmHg 44%
    17:00 +33°C° 0 mm 6 mps 746 mmHg 48%
    18:00 +32°C° 0 mm 5 mps 746 mmHg 52%
    19:00 +29°C° 0 mm 5 mps 746 mmHg 57%
    20:00 +28°C° 0 mm 4 mps 747 mmHg 63%
    21:00 +27°C° 0 mm 3 mps 747 mmHg 68%
    22:00 +26°C° 0 mm 3 mps 747 mmHg 68%
    23:00 +26°C° 0 mm 3 mps 747 mmHg 68%

    25 Junio, Lunes

    Tiempo Temperatura Precipitaciones Viento Presión Humedad
    00:00 +26°C° 0 mm 3 mps 747 mmHg 68%
    01:00 +25°C° 0 mm 3 mps 747 mmHg 68%
    02:00 +25°C° 0 mm 3 mps 747 mmHg 69%
    03:00 +25°C° 0 mm 3 mps 747 mmHg 69%
    04:00 +25°C° 0 mm 3 mps 747 mmHg 69%
    05:00 +25°C° 0 mm 2 mps 747 mmHg 68%
    06:00 +25°C° 0 mm 2 mps 748 mmHg 68%
    07:00 +27°C° 0 mm 2 mps 748 mmHg 62%
    08:00 +28°C° 0 mm 2 mps 748 mmHg 56%
    09:00 +30°C° 0 mm 3 mps 748 mmHg 50%
    10:00 +31°C° 0 mm 3 mps 748 mmHg 47%
    11:00 +33°C° 0 mm 3 mps 748 mmHg 45%
    12:00 +33°C° 0 mm 3 mps 748 mmHg 42%
    13:00 +33°C° 0 mm 4 mps 748 mmHg 42%
    14:00 +33°C° 0 mm 4 mps 748 mmHg 42%
    15:00 +34°C° 0 mm 4 mps 748 mmHg 41%
    16:00 +32°C° 0 mm 4 mps 748 mmHg 45%
    17:00 +30°C° 0 mm 4 mps 748 mmHg 48%
    18:00 +29°C° 0 mm 4 mps 749 mmHg 51%
    19:00 +28°C° 0 mm 3 mps 749 mmHg 55%
    20:00 +27°C° 0 mm 3 mps 750 mmHg 60%
    21:00 +26°C° 0 mm 3 mps 750 mmHg 65%
    22:00 +25°C° 0 mm 3 mps 750 mmHg 67%
    23:00 +25°C° 0 mm 3 mps 750 mmHg 69%
    Mostrar más